Time,TemperatureF,DewpointF,PressureIn,WindDirection,WindDirectionDegrees,WindSpeedMPH,WindSpeedGustMPH,Humidity,HourlyPrecipIn,Conditions,Clouds,dailyrainin,SoftwareType,DateUTC
2013-01-07 00:07:00,33.1,14.6,30.06,West,273,0.0,0.0,46,0.00,,,0.00,VWS V12.08,2013-01-07 05:07:00,
2013-01-07 00:09:00,33.1,14.6,30.06,West,273,0.0,0.0,46,0.00,,,0.00,VWS V12.08,2013-01-07 05:09:00,
2013-01-07 00:14:00,33.1,14.6,30.06,West,273,0.0,0.0,46,0.00,,,0.00,VWS V12.08,2013-01-07 05:14:00,
2013-01-07 00:19:00,33.1,14.6,30.06,West,273,0.0,0.0,46,0.00,,,0.00,VWS V12.08,2013-01-07 05:19:00,
2013-01-07 00:29:00,33.1,15.1,30.06,West,273,0.0,0.0,47,0.00,,,0.00,VWS V12.08,2013-01-07 05:29:00,
2013-01-07 00:34:00,33.1,15.1,30.06,West,273,0.0,0.0,47,0.00,,,0.00,VWS V12.08,2013-01-07 05:34:00,
2013-01-07 00:44:00,33.1,15.1,30.06,West,273,0.0,0.0,47,0.00,,,0.00,VWS V12.08,2013-01-07 05:44:00,
2013-01-07 00:49:00,33.1,15.1,30.06,West,273,0.0,0.0,47,0.00,,,0.00,VWS V12.08,2013-01-07 05:49:00,
2013-01-07 00:54:00,33.1,15.1,30.06,West,273,0.0,0.0,47,0.00,,,0.00,VWS V12.08,2013-01-07 05:54:00,
2013-01-07 01:07:00,33.1,15.1,30.06,West,273,0.0,0.0,47,0.00,,,0.00,VWS V12.08,2013-01-07 06:07:00,
2013-01-07 01:14:00,33.1,15.1,30.06,West,273,0.0,0.0,47,0.00,,,0.00,VWS V12.08,2013-01-07 06:14:00,
2013-01-07 01:19:00,33.1,15.1,30.06,West,273,0.0,0.0,47,0.00,,,0.00,VWS V12.08,2013-01-07 06:19:00,
2013-01-07 01:29:00,33.1,15.1,30.06,West,273,0.0,0.0,47,0.00,,,0.00,VWS V12.08,2013-01-07 06:29:00,
2013-01-07 01:35:00,33.1,15.1,30.06,West,273,0.0,0.0,47,0.00,,,0.00,VWS V12.08,2013-01-07 06:35:00,
2013-01-07 01:44:00,33.1,15.1,30.06,West,273,0.0,0.0,47,0.00,,,0.00,VWS V12.08,2013-01-07 06:44:00,
2013-01-07 01:50:00,33.3,15.2,30.06,West,273,0.0,0.0,47,0.00,,,0.00,VWS V12.08,2013-01-07 06:50:00,
2013-01-07 01:59:00,33.3,15.2,30.09,West,273,0.0,0.0,47,0.00,,,0.00,VWS V12.08,2013-01-07 06:59:00,
2013-01-07 02:07:00,33.3,15.2,30.09,West,273,0.0,0.0,47,0.00,,,0.00,VWS V12.08,2013-01-07 07:07:00,
2013-01-07 02:14:00,33.3,15.2,30.09,West,273,0.0,0.0,47,0.00,,,0.00,VWS V12.08,2013-01-07 07:14:00,
2013-01-07 02:20:00,33.3,15.2,30.09,West,273,0.0,0.0,47,0.00,,,0.00,VWS V12.08,2013-01-07 07:20:00,
2013-01-07 02:29:00,33.3,15.2,30.09,West,273,0.0,0.0,47,0.00,,,0.00,VWS V12.08,2013-01-07 07:29:00,
2013-01-07 02:35:00,33.3,15.2,30.09,West,273,0.0,0.0,47,0.00,,,0.00,VWS V12.08,2013-01-07 07:35:00,
2013-01-07 02:44:00,33.1,15.1,30.09,West,273,0.0,0.0,47,0.00,,,0.00,VWS V12.08,2013-01-07 07:44:00,
2013-01-07 02:50:00,33.1,15.1,30.09,West,273,0.0,0.0,47,0.00,,,0.00,VWS V12.08,2013-01-07 07:50:00,
2013-01-07 02:59:00,32.9,14.9,30.09,WNW,302,2.7,2.7,47,0.00,,,0.00,VWS V12.08,2013-01-07 07:59:00,
2013-01-07 03:07:00,33.1,15.1,30.09,North,353,0.0,4.0,47,0.00,,,0.00,VWS V12.08,2013-01-07 08:07:00,
2013-01-07 03:14:00,33.3,15.7,30.09,NNW,341,0.0,3.1,48,0.00,,,0.00,VWS V12.08,2013-01-07 08:14:00,
2013-01-07 03:20:00,33.6,16.0,30.09,NW,324,0.0,3.1,48,0.00,,,0.00,VWS V12.08,2013-01-07 08:20:00,
2013-01-07 03:29:00,34.2,16.5,30.09,NW,317,0.0,0.0,48,0.00,,,0.00,VWS V12.08,2013-01-07 08:29:00,
2013-01-07 03:35:00,34.3,16.7,30.09,NW,318,0.0,2.7,48,0.00,,,0.00,VWS V12.08,2013-01-07 08:35:00,
2013-01-07 03:44:00,34.5,16.9,30.09,NNW,331,0.0,3.6,48,0.00,,,0.00,VWS V12.08,2013-01-07 08:44:00,
2013-01-07 03:50:00,34.5,16.9,30.09,NW,312,0.0,2.2,48,0.00,,,0.00,VWS V12.08,2013-01-07 08:50:00,
2013-01-07 03:59:00,34.9,17.2,30.09,NW,312,0.0,3.1,48,0.00,,,0.00,VWS V12.08,2013-01-07 08:59:00,
2013-01-07 04:08:00,34.9,17.2,30.09,WNW,302,0.0,3.1,48,0.00,,,0.00,VWS V12.08,2013-01-07 09:08:00,
2013-01-07 04:14:00,35.1,17.4,30.09,NNW,337,0.0,4.0,48,0.00,,,0.00,VWS V12.08,2013-01-07 09:14:00,
2013-01-07 04:20:00,35.1,17.4,30.09,NNW,337,0.0,4.0,48,0.00,,,0.00,VWS V12.08,2013-01-07 09:20:00,
2013-01-07 04:29:00,35.1,17.4,30.09,NNW,335,0.0,0.0,48,0.00,,,0.00,VWS V12.08,2013-01-07 09:29:00,
2013-01-07 04:35:00,35.1,17.8,30.09,NNW,335,0.0,0.0,49,0.00,,,0.00,VWS V12.08,2013-01-07 09:35:00,
2013-01-07 04:44:00,35.1,17.8,30.09,NNW,335,0.0,0.0,49,0.00,,,0.00,VWS V12.08,2013-01-07 09:44:00,
2013-01-07 04:50:00,34.9,17.7,30.09,NNW,327,0.0,3.1,49,0.00,,,0.00,VWS V12.08,2013-01-07 09:50:00,
2013-01-07 04:59:00,34.9,17.7,30.09,NW,321,0.0,3.1,49,0.00,,,0.00,VWS V12.08,2013-01-07 09:59:00,
2013-01-07 05:09:00,34.9,17.7,30.09,NW,321,0.0,3.1,49,0.00,,,0.00,VWS V12.08,2013-01-07 10:09:00,
2013-01-07 05:15:00,35.1,17.8,30.12,NNW,328,2.2,3.6,49,0.00,,,0.00,VWS V12.08,2013-01-07 10:15:00,
2013-01-07 05:20:00,35.1,17.8,30.12,NW,314,0.0,3.6,49,0.00,,,0.00,VWS V12.08,2013-01-07 10:20:00,
2013-01-07 05:30:00,35.1,17.8,30.12,NW,304,0.0,2.7,49,0.00,,,0.00,VWS V12.08,2013-01-07 10:30:00,
2013-01-07 05:35:00,35.2,18.0,30.12,NW,315,0.0,3.1,49,0.00,,,0.00,VWS V12.08,2013-01-07 10:35:00,
2013-01-07 05:45:00,35.4,18.6,30.12,NNW,328,0.0,4.0,50,0.00,,,0.00,VWS V12.08,2013-01-07 10:45:00,
2013-01-07 05:50:00,35.4,18.6,30.12,NW,307,3.1,5.4,50,0.00,,,0.00,VWS V12.08,2013-01-07 10:50:00,
2013-01-07 06:00:00,35.8,19.0,30.15,NNW,346,4.0,5.8,50,0.00,,,0.00,VWS V12.08,2013-01-07 11:00:00,
2013-01-07 06:08:00,36.0,19.1,30.15,WSW,240,3.1,5.8,50,0.00,,,0.00,VWS V12.08,2013-01-07 11:08:00,
2013-01-07 06:15:00,36.3,19.5,30.15,West,276,5.8,6.3,50,0.00,,,0.00,VWS V12.08,2013-01-07 11:15:00,
2013-01-07 06:20:00,36.5,19.6,30.15,NNW,341,3.6,6.3,50,0.00,,,0.00,VWS V12.08,2013-01-07 11:20:00,
2013-01-07 06:30:00,36.7,19.8,30.15,NNW,332,3.1,6.3,50,0.00,,,0.00,VWS V12.08,2013-01-07 11:30:00,
2013-01-07 06:35:00,36.7,19.8,30.15,NW,326,2.2,6.3,50,0.00,,,0.00,VWS V12.08,2013-01-07 11:35:00,
2013-01-07 06:45:00,36.9,20.0,30.18,North,353,4.0,6.3,50,0.00,,,0.00,VWS V12.08,2013-01-07 11:45:00,
2013-01-07 06:50:00,36.9,20.0,30.18,North,350,6.3,6.3,50,0.00,,,0.00,VWS V12.08,2013-01-07 11:50:00,
2013-01-07 07:00:00,36.9,20.0,30.18,WNW,297,2.2,6.3,50,0.00,,,0.00,VWS V12.08,2013-01-07 12:00:00,
2013-01-07 07:08:00,36.9,20.0,30.18,North,0,2.7,6.3,50,0.00,,,0.00,VWS V12.08,2013-01-07 12:08:00,
2013-01-07 07:15:00,36.9,20.0,30.18,SW,236,3.1,4.9,50,0.00,,,0.00,VWS V12.08,2013-01-07 12:15:00,
2013-01-07 07:24:00,36.9,20.0,30.18,WNW,284,0.0,4.9,50,0.00,,,0.00,VWS V12.08,2013-01-07 12:24:00,
2013-01-07 07:34:00,36.9,20.0,30.18,NNE,12,4.0,5.8,50,0.00,,,0.00,VWS V12.08,2013-01-07 12:34:00,
2013-01-07 07:44:00,37.0,20.1,30.21,North,353,3.1,5.8,50,0.00,,,0.00,VWS V12.08,2013-01-07 12:44:00,
2013-01-07 07:49:00,37.0,20.1,30.21,NNW,344,0.0,6.3,50,0.00,,,0.00,VWS V12.08,2013-01-07 12:49:00,
2013-01-07 07:59:00,37.0,20.1,30.21,NW,320,0.0,6.3,50,0.00,,,0.00,VWS V12.08,2013-01-07 12:59:00,
2013-01-07 08:07:00,37.2,20.3,30.21,NNW,341,3.6,6.3,50,0.00,,,0.00,VWS V12.08,2013-01-07 13:07:00,
2013-01-07 08:14:00,37.4,20.5,30.24,NNW,342,3.1,5.8,50,0.00,,,0.00,VWS V12.08,2013-01-07 13:14:00,
2013-01-07 08:20:00,37.6,20.6,30.24,North,349,3.1,6.3,50,0.00,,,0.00,VWS V12.08,2013-01-07 13:20:00,
2013-01-07 08:29:00,37.8,20.8,30.24,NW,307,5.4,5.8,50,0.00,,,0.00,VWS V12.08,2013-01-07 13:29:00,
2013-01-07 08:35:00,37.9,21.0,30.24,NW,324,3.6,5.8,50,0.00,,,0.00,VWS V12.08,2013-01-07 13:35:00,
2013-01-07 08:44:00,38.1,21.1,30.24,WSW,238,3.6,5.8,50,0.00,,,0.00,VWS V12.08,2013-01-07 13:44:00,
2013-01-07 08:50:00,38.5,21.5,30.24,NNW,334,0.0,5.4,50,0.00,,,0.00,VWS V12.08,2013-01-07 13:50:00,
2013-01-07 08:59:00,38.7,21.6,30.27,NNW,344,0.0,5.4,50,0.00,,,0.00,VWS V12.08,2013-01-07 13:59:00,
2013-01-07 09:07:00,38.7,21.6,30.27,NNW,341,3.6,5.4,50,0.00,,,0.00,VWS V12.08,2013-01-07 14:07:00,
2013-01-07 09:14:00,38.8,21.8,30.27,East,83,2.7,7.2,50,0.00,,,0.00,VWS V12.08,2013-01-07 14:14:00,
2013-01-07 09:20:00,39.0,22.0,30.27,North,0,2.7,7.2,50,0.00,,,0.00,VWS V12.08,2013-01-07 14:20:00,
2013-01-07 09:29:00,39.2,22.1,30.27,North,0,3.6,4.9,50,0.00,,,0.00,VWS V12.08,2013-01-07 14:29:00,
2013-01-07 09:37:00,39.6,22.5,30.30,NNW,335,2.7,4.9,50,0.00,,,0.00,VWS V12.08,2013-01-07 14:37:00,
2013-01-07 09:44:00,40.1,23.0,30.30,North,353,4.0,5.8,50,0.00,,,0.00,VWS V12.08,2013-01-07 14:44:00,
2013-01-07 09:50:00,40.3,23.1,30.30,NW,316,3.6,5.4,50,0.00,,,0.00,VWS V12.08,2013-01-07 14:50:00,
2013-01-07 09:59:00,40.6,23.5,30.30,North,2,3.1,5.4,50,0.00,,,0.00,VWS V12.08,2013-01-07 14:59:00,
2013-01-07 10:07:00,41.0,23.3,30.30,NNW,338,3.6,5.8,49,0.00,,,0.00,VWS V12.08,2013-01-07 15:07:00,
2013-01-07 10:14:00,41.5,23.8,30.30,North,6,0.0,6.3,49,0.00,,,0.00,VWS V12.08,2013-01-07 15:14:00,
2013-01-07 10:20:00,41.7,24.0,30.30,NNW,336,4.0,6.3,49,0.00,,,0.00,VWS V12.08,2013-01-07 15:20:00,
2013-01-07 10:29:00,42.1,23.8,30.30,North,0,2.2,6.3,48,0.00,,,0.00,VWS V12.08,2013-01-07 15:29:00,
2013-01-07 10:35:00,42.1,23.8,30.30,NW,325,2.7,6.3,48,0.00,,,0.00,VWS V12.08,2013-01-07 15:35:00,
2013-01-07 10:44:00,42.1,23.8,30.33,NE,34,2.2,7.6,48,0.00,,,0.00,VWS V12.08,2013-01-07 15:44:00,
2013-01-07 10:50:00,42.1,23.3,30.33,NNW,345,3.6,5.8,47,0.00,,,0.00,VWS V12.08,2013-01-07 15:50:00,
2013-01-07 10:59:00,42.3,23.5,30.33,SE,130,3.6,7.2,47,0.00,,,0.00,VWS V12.08,2013-01-07 15:59:00,
2013-01-07 11:08:00,42.3,23.5,30.33,North,1,3.6,7.2,47,0.00,,,0.00,VWS V12.08,2013-01-07 16:08:00,
2013-01-07 11:15:00,42.8,23.5,30.33,North,0,2.7,5.8,46,0.00,,,0.00,VWS V12.08,2013-01-07 16:15:00,
2013-01-07 11:20:00,42.6,23.3,30.33,NNW,340,3.6,7.6,46,0.00,,,0.00,VWS V12.08,2013-01-07 16:20:00,
2013-01-07 11:29:00,42.8,23.5,30.33,WNW,290,3.6,4.9,46,0.00,,,0.00,VWS V12.08,2013-01-07 16:29:00,
2013-01-07 11:35:00,42.8,23.0,30.33,NE,36,5.8,5.8,45,0.00,,,0.00,VWS V12.08,2013-01-07 16:35:00,
2013-01-07 11:45:00,42.8,23.0,30.33,NE,35,2.2,7.6,45,0.00,,,0.00,VWS V12.08,2013-01-07 16:45:00,
2013-01-07 11:50:00,42.8,23.0,30.33,North,3,2.7,5.8,45,0.00,,,0.00,VWS V12.08,2013-01-07 16:50:00,
2013-01-07 11:59:00,43.2,22.7,30.33,NW,321,3.1,7.6,44,0.00,,,0.00,VWS V12.08,2013-01-07 16:59:00,
2013-01-07 12:08:00,42.8,22.4,30.33,NNW,331,3.1,7.6,44,0.00,,,0.00,VWS V12.08,2013-01-07 17:08:00,
2013-01-07 12:15:00,42.1,22.3,30.33,NE,39,2.7,5.4,45,0.00,,,0.00,VWS V12.08,2013-01-07 17:15:00,
2013-01-07 12:20:00,41.5,21.8,30.33,NW,314,0.0,5.4,45,0.00,,,0.00,VWS V12.08,2013-01-07 17:20:00,
2013-01-07 12:30:00,41.2,21.5,30.36,NE,53,0.0,4.0,45,0.00,,,0.00,VWS V12.08,2013-01-07 17:30:00,
2013-01-07 12:35:00,40.8,21.7,30.36,NE,35,0.0,4.0,46,0.00,,,0.00,VWS V12.08,2013-01-07 17:35:00,
2013-01-07 12:45:00,40.6,21.5,30.36,WNW,291,0.0,4.0,46,0.00,,,0.00,VWS V12.08,2013-01-07 17:45:00,
2013-01-07 12:50:00,40.8,21.7,30.36,NE,38,0.0,3.1,46,0.00,,,0.00,VWS V12.08,2013-01-07 17:50:00,
2013-01-07 13:00:00,41.2,22.0,30.36,NE,50,5.4,5.4,46,0.00,,,0.00,VWS V12.08,2013-01-07 18:00:00,
2013-01-07 13:08:00,41.2,22.0,30.36,NNE,33,2.7,5.4,46,0.00,,,0.00,VWS V12.08,2013-01-07 18:08:00,
2013-01-07 13:15:00,41.0,21.8,30.39,NNE,29,0.0,5.8,46,0.00,,,0.00,VWS V12.08,2013-01-07 18:15:00,
2013-01-07 13:20:00,40.8,21.7,30.39,North,1,4.0,5.8,46,0.00,,,0.00,VWS V12.08,2013-01-07 18:20:00,
2013-01-07 13:30:00,40.5,21.3,30.39,NE,36,0.0,5.4,46,0.00,,,0.00,VWS V12.08,2013-01-07 18:30:00,
2013-01-07 13:35:00,40.3,21.2,30.39,ENE,57,3.1,6.3,46,0.00,,,0.00,VWS V12.08,2013-01-07 18:35:00,
2013-01-07 13:45:00,40.1,21.0,30.39,North,6,2.2,6.3,46,0.00,,,0.00,VWS V12.08,2013-01-07 18:45:00,
2013-01-07 13:50:00,40.1,21.0,30.39,North,10,0.0,3.6,46,0.00,,,0.00,VWS V12.08,2013-01-07 18:50:00,
2013-01-07 14:00:00,39.9,20.8,30.42,NE,41,2.2,4.5,46,0.00,,,0.00,VWS V12.08,2013-01-07 19:00:00,
2013-01-07 14:08:00,39.9,20.8,30.42,NE,34,4.0,4.5,46,0.00,,,0.00,VWS V12.08,2013-01-07 19:08:00,
2013-01-07 14:15:00,39.9,20.8,30.42,NE,35,0.0,5.8,46,0.00,,,0.00,VWS V12.08,2013-01-07 19:15:00,
2013-01-07 14:24:00,39.7,20.7,30.42,NE,44,0.0,5.8,46,0.00,,,0.00,VWS V12.08,2013-01-07 19:24:00,
2013-01-07 14:35:00,39.7,20.7,30.42,NNE,12,0.0,4.0,46,0.00,,,0.00,VWS V12.08,2013-01-07 19:35:00,
2013-01-07 14:44:00,39.7,20.7,30.42,NE,44,0.0,4.0,46,0.00,,,0.00,VWS V12.08,2013-01-07 19:44:00,
2013-01-07 14:49:00,39.7,20.7,30.42,ENE,72,0.0,0.0,46,0.00,,,0.00,VWS V12.08,2013-01-07 19:49:00,
2013-01-07 14:59:00,39.7,20.7,30.45,North,1,0.0,3.6,46,0.00,,,0.00,VWS V12.08,2013-01-07 19:59:00,
2013-01-07 15:07:00,39.6,20.5,30.45,NE,44,3.1,3.6,46,0.00,,,0.00,VWS V12.08,2013-01-07 20:07:00,
2013-01-07 15:14:00,39.4,20.3,30.45,NNE,30,0.0,4.0,46,0.00,,,0.00,VWS V12.08,2013-01-07 20:14:00,
2013-01-07 15:20:00,39.2,20.2,30.45,NE,44,0.0,4.0,46,0.00,,,0.00,VWS V12.08,2013-01-07 20:20:00,
2013-01-07 15:29:00,39.2,20.2,30.47,NNE,14,2.2,3.1,46,0.00,,,0.00,VWS V12.08,2013-01-07 20:29:00,
2013-01-07 15:35:00,38.8,19.8,30.47,NNE,20,0.0,3.1,46,0.00,,,0.00,VWS V12.08,2013-01-07 20:35:00,
2013-01-07 15:44:00,38.7,19.7,30.47,NNE,20,0.0,3.1,46,0.00,,,0.00,VWS V12.08,2013-01-07 20:44:00,
2013-01-07 15:50:00,38.7,19.7,30.47,NNE,20,0.0,0.0,46,0.00,,,0.00,VWS V12.08,2013-01-07 20:50:00,
2013-01-07 15:59:00,38.3,19.4,30.47,NNE,20,0.0,0.0,46,0.00,,,0.00,VWS V12.08,2013-01-07 20:59:00,
2013-01-07 16:07:00,38.1,19.2,30.47,NNE,20,0.0,0.0,46,0.00,,,0.00,VWS V12.08,2013-01-07 21:07:00,
2013-01-07 16:14:00,37.9,19.0,30.47,NNE,20,0.0,0.0,46,0.00,,,0.00,VWS V12.08,2013-01-07 21:14:00,
2013-01-07 16:20:00,37.9,19.0,30.47,NNE,20,0.0,0.0,46,0.00,,,0.00,VWS V12.08,2013-01-07 21:20:00,
2013-01-07 16:29:00,37.8,18.9,30.50,NNE,20,0.0,0.0,46,0.00,,,0.00,VWS V12.08,2013-01-07 21:29:00,
2013-01-07 16:35:00,37.6,18.7,30.50,NNE,20,0.0,0.0,46,0.00,,,0.00,VWS V12.08,2013-01-07 21:35:00,
2013-01-07 16:44:00,37.4,18.5,30.47,NNE,20,0.0,0.0,46,0.00,,,0.00,VWS V12.08,2013-01-07 21:44:00,
2013-01-07 16:50:00,37.0,18.2,30.47,NNE,20,0.0,0.0,46,0.00,,,0.00,VWS V12.08,2013-01-07 21:50:00,
2013-01-07 16:59:00,36.5,17.7,30.47,NNE,20,0.0,0.0,46,0.00,,,0.00,VWS V12.08,2013-01-07 21:59:00,
2013-01-07 17:07:00,36.5,17.7,30.47,NNE,20,0.0,0.0,46,0.00,,,0.00,VWS V12.08,2013-01-07 22:07:00,
2013-01-07 17:14:00,36.5,17.7,30.50,NNE,20,0.0,0.0,46,0.00,,,0.00,VWS V12.08,2013-01-07 22:14:00,
2013-01-07 17:20:00,36.5,17.7,30.50,NNE,20,0.0,0.0,46,0.00,,,0.00,VWS V12.08,2013-01-07 22:20:00,
2013-01-07 17:29:00,35.6,16.9,30.50,NNE,19,0.0,0.0,46,0.00,,,0.00,VWS V12.08,2013-01-07 22:29:00,
2013-01-07 17:35:00,35.6,16.9,30.50,NNE,19,0.0,0.0,46,0.00,,,0.00,VWS V12.08,2013-01-07 22:35:00,
2013-01-07 17:44:00,35.4,17.2,30.50,NNE,20,0.0,0.0,47,0.00,,,0.00,VWS V12.08,2013-01-07 22:44:00,
2013-01-07 17:50:00,35.4,17.2,30.50,NNE,20,0.0,0.0,47,0.00,,,0.00,VWS V12.08,2013-01-07 22:50:00,
2013-01-07 17:59:00,35.1,16.9,30.53,NNE,20,0.0,0.0,47,0.00,,,0.00,VWS V12.08,2013-01-07 22:59:00,
2013-01-07 18:08:00,34.9,16.2,30.53,NNE,20,0.0,0.0,46,0.00,,,0.00,VWS V12.08,2013-01-07 23:08:00,
2013-01-07 18:14:00,34.7,16.0,30.53,NNE,20,0.0,0.0,46,0.00,,,0.00,VWS V12.08,2013-01-07 23:14:00,
2013-01-07 18:20:00,34.5,15.9,30.53,NNE,20,0.0,0.0,46,0.00,,,0.00,VWS V12.08,2013-01-07 23:20:00,
2013-01-07 18:29:00,34.2,15.6,30.53,NNE,20,0.0,0.0,46,0.00,,,0.00,VWS V12.08,2013-01-07 23:29:00,
2013-01-07 18:35:00,34.2,15.6,30.53,NNE,20,0.0,0.0,46,0.00,,,0.00,VWS V12.08,2013-01-07 23:35:00,
2013-01-07 18:44:00,34.0,15.4,30.53,NNE,20,0.0,0.0,46,0.00,,,0.00,VWS V12.08,2013-01-07 23:44:00,
2013-01-07 18:50:00,34.0,15.4,30.53,NNE,20,0.0,0.0,46,0.00,,,0.00,VWS V12.08,2013-01-07 23:50:00,
2013-01-07 18:59:00,34.0,15.4,30.53,NNE,20,0.0,0.0,46,0.00,,,0.00,VWS V12.08,2013-01-07 23:59:00,
2013-01-07 19:08:00,34.0,15.4,30.53,NNE,20,0.0,0.0,46,0.00,,,0.00,VWS V12.08,2013-01-08 00:08:00,
2013-01-07 19:15:00,34.0,15.4,30.53,NNE,20,0.0,0.0,46,0.00,,,0.00,VWS V12.08,2013-01-08 00:15:00,
2013-01-07 19:20:00,34.0,15.4,30.53,NNE,20,0.0,0.0,46,0.00,,,0.00,VWS V12.08,2013-01-08 00:20:00,
2013-01-07 19:30:00,33.8,15.2,30.53,NNE,20,0.0,0.0,46,0.00,,,0.00,VWS V12.08,2013-01-08 00:30:00,
2013-01-07 19:35:00,33.6,15.6,30.53,NNE,19,0.0,0.0,47,0.00,,,0.00,VWS V12.08,2013-01-08 00:35:00,
2013-01-07 19:45:00,33.4,15.4,30.53,NNE,19,0.0,0.0,47,0.00,,,0.00,VWS V12.08,2013-01-08 00:45:00,
2013-01-07 19:50:00,33.3,15.2,30.53,NNE,20,0.0,0.0,47,0.00,,,0.00,VWS V12.08,2013-01-08 00:50:00,
2013-01-07 20:00:00,33.1,14.6,30.53,NNE,20,0.0,0.0,46,0.00,,,0.00,VWS V12.08,2013-01-08 01:00:00,
2013-01-07 20:08:00,33.1,14.6,30.53,NNE,19,0.0,0.0,46,0.00,,,0.00,VWS V12.08,2013-01-08 01:08:00,
2013-01-07 20:15:00,32.5,14.1,30.53,NNE,20,0.0,0.0,46,0.00,,,0.00,VWS V12.08,2013-01-08 01:15:00,
2013-01-07 20:20:00,32.4,13.9,30.53,NNE,20,0.0,0.0,46,0.00,,,0.00,VWS V12.08,2013-01-08 01:20:00,
2013-01-07 20:30:00,32.4,13.9,30.53,NNE,19,0.0,0.0,46,0.00,,,0.00,VWS V12.08,2013-01-08 01:30:00,
2013-01-07 20:35:00,32.4,13.9,30.53,NNE,20,0.0,0.0,46,0.00,,,0.00,VWS V12.08,2013-01-08 01:35:00,
2013-01-07 20:45:00,32.2,13.7,30.53,NNE,19,0.0,0.0,46,0.00,,,0.00,VWS V12.08,2013-01-08 01:45:00,
2013-01-07 20:50:00,32.2,13.7,30.53,NNE,19,0.0,0.0,46,0.00,,,0.00,VWS V12.08,2013-01-08 01:50:00,
2013-01-07 21:00:00,32.2,13.7,30.53,NNE,19,0.0,0.0,46,0.00,,,0.00,VWS V12.08,2013-01-08 02:00:00,
2013-01-07 21:08:00,32.4,13.9,30.53,NNE,19,0.0,0.0,46,0.00,,,0.00,VWS V12.08,2013-01-08 02:08:00,
2013-01-07 21:15:00,32.2,13.7,30.53,NNE,20,0.0,0.0,46,0.00,,,0.00,VWS V12.08,2013-01-08 02:15:00,
2013-01-07 21:24:00,32.2,13.7,30.53,NNE,20,0.0,0.0,46,0.00,,,0.00,VWS V12.08,2013-01-08 02:24:00,
2013-01-07 21:34:00,32.0,13.6,30.53,NNE,19,0.0,0.0,46,0.00,,,0.00,VWS V12.08,2013-01-08 02:34:00,
2013-01-07 21:44:00,32.0,13.6,30.53,NNE,19,0.0,0.0,46,0.00,,,0.00,VWS V12.08,2013-01-08 02:44:00,
2013-01-07 21:49:00,31.8,13.4,30.53,NNE,19,0.0,0.0,46,0.00,,,0.00,VWS V12.08,2013-01-08 02:49:00,
2013-01-07 21:59:00,31.6,13.2,30.53,NNE,20,0.0,0.0,46,0.00,,,0.00,VWS V12.08,2013-01-08 02:59:00,
2013-01-07 22:05:00,31.6,13.2,30.53,NNE,19,0.0,0.0,46,0.00,,,0.00,VWS V12.08,2013-01-08 03:05:00,
2013-01-07 22:14:00,31.5,13.1,30.53,NNE,19,0.0,0.0,46,0.00,,,0.00,VWS V12.08,2013-01-08 03:14:00,
2013-01-07 22:20:00,31.3,12.9,30.53,NNE,19,0.0,0.0,46,0.00,,,0.00,VWS V12.08,2013-01-08 03:20:00,
2013-01-07 22:29:00,31.3,12.9,30.53,NNE,19,0.0,0.0,46,0.00,,,0.00,VWS V12.08,2013-01-08 03:29:00,
2013-01-07 22:35:00,31.3,12.9,30.53,NNE,19,0.0,0.0,46,0.00,,,0.00,VWS V12.08,2013-01-08 03:35:00,
2013-01-07 22:44:00,30.9,12.6,30.53,NNE,19,0.0,0.0,46,0.00,,,0.00,VWS V12.08,2013-01-08 03:44:00,
2013-01-07 22:50:00,31.1,12.8,30.53,NNE,19,0.0,0.0,46,0.00,,,0.00,VWS V12.08,2013-01-08 03:50:00,
2013-01-07 22:59:00,31.1,12.8,30.53,NNE,19,0.0,0.0,46,0.00,,,0.00,VWS V12.08,2013-01-08 03:59:00,
2013-01-07 23:06:00,31.1,12.8,30.53,NNE,19,0.0,0.0,46,0.00,,,0.00,VWS V12.08,2013-01-08 04:06:00,
2013-01-07 23:14:00,31.1,12.8,30.53,NNE,19,0.0,0.0,46,0.00,,,0.00,VWS V12.08,2013-01-08 04:14:00,
2013-01-07 23:20:00,31.1,12.8,30.53,NNE,19,0.0,0.0,46,0.00,,,0.00,VWS V12.08,2013-01-08 04:20:00,
2013-01-07 23:29:00,31.3,12.9,30.53,NNE,19,0.0,0.0,46,0.00,,,0.00,VWS V12.08,2013-01-08 04:29:00,
2013-01-07 23:35:00,31.3,12.9,30.53,NNE,19,0.0,0.0,46,0.00,,,0.00,VWS V12.08,2013-01-08 04:35:00,
2013-01-07 23:44:00,31.1,12.8,30.53,NNE,19,0.0,0.0,46,0.00,,,0.00,VWS V12.08,2013-01-08 04:44:00,
2013-01-07 23:50:00,31.1,12.8,30.53,NNE,19,0.0,0.0,46,0.00,,,0.00,VWS V12.08,2013-01-08 04:50:00,
2013-01-07 23:59:00,30.9,12.6,30.53,NNE,19,0.0,0.0,46,0.00,,,0.00,VWS V12.08,2013-01-08 04:59:00,